Temp
-6 -7 -7 -7 -7 -7 -7 -7 -7 -7 -7 -7 -7 -7 -7 -7 -7 -8 -8 -8 -8 -8 -8 -8 -8 -8 -8 -8 -8 -7 -7 -7 -7 -7 -7 -7 -6 -7 -7 -7 -7 -7 -7
-6 -7 -6 -6 -7 -7 -7 -7 -7 -7 -7 -7 -7 -8 -7 -8 -8 -8 -8 -8 -8 -8 -8 -8 -8 -8 -8 -7 -7 -7 -6 -6 -6 -6 -7 -7 -7 -6 -7 -7 -7 -7 -7
-6 -6 -6 -6 -6 -7 -7 -7 -7 -7 -7 -7 -7 -8 -8 -8 -8 -8 -8 -8 -8 -8 -8 -8 -8 -8 -8 -8 -7 -7 -8 -7 -6 -6 -7 -7 -7 -7 -7 -7 -7 -7 -7
-5 -5 -5 -6 -6 -6 -6 -6 -6 -6 -7 -7 -7 -8 -8 -8 -8 -8 -8 -8 -8 -8 -8 -8 -8 -8 -7 -7 -8 -8 -7 -7 -6 -7 -7 -8 -7 -7 -7 -7 -8 -7 -7
-5 -5 -5 -5 -5 -6 -6 -6 -6 -6 -6 -7 -7 -7 -7 -8 -8 -8 -8 -8 -8 -8 -8 -7 -7 -7 -7 -7 -7 -7 -7 -7 -7 -7 -8 -7 -8 -8 -7 -7 -7 -8 -8
-5 -5 -5 -5 -5 -5 -6 -6 -6 -6 -7 -6 -7 -6 -7 -7 -7 -7 -7 -7 -8 -7 -7 -7 -7 -7 -7 -7 -7 -7 -7 -7 -7 -8 -8 -8 -8 -8 -8 -7 -8 -8 -8
-4 -4 -5 -5 -5 -6 -6 -6 -6 -7 -7 -7 -7 -7 -7 -7 -7 -7 -7 -7 -7 -8 -7 -8 -8 -8 -7 -8 -8 -8 -8 -7 -8 -8 -8 -8 -8 -8 -8 -8 -7 -7 -8
-4 -4 -4 -5 -5 -6 -6 -6 -7 -7 -7 -7 -7 -7 -8 -8 -7 -7 -8 -8 -7 -8 -8 -8 -8 -7 -8 -8 -8 -8 -7 -8 -8 -8 -8 -9 -8 -8 -8 -8 -8 -8 -8
-4 -4 -5 -5 -6 -6 -6 -6 -6 -6 -7 -7 -7 -7 -7 -7 -8 -9 -8 -7 -8 -8 -7 -8 -6 -6 -7 -8 -8 -8 -8 -8 -8 -8 -8 -8 -9 -9 -9 -8 -8 -8 -8
-4 -4 -5 -5 -6 -6 -6 -6 -6 -6 -7 -7 -7 -7 -8 -9 -8 -8 -8 -8 -9 -8 -7 -8 -8 -7 -7 -6 -7 -8 -8 -8 -8 -7 -7 -8 -8 -9 -9 -9 -9 -9 -9
-4 -4 -4 -5 -5 -6 -6 -6 -6 -6 -7 -7 -7 -7 -8 -8 -8 -8 -7 -8 -8 -8 -8 -7 -8 -7 -6 -7 -7 -7 -7 -8 -8 -8 -8 -8 -8 -8 -8 -9 -9 -9 -9
-4 -4 -4 -5 -5 -5 -5 -6 -6 -7 -6 -7 -7 -7 -8 -8 -8 -8 -7 -6 -8 -8 -8 -7 -7 -7 -7 -7 -7 -7 -8 -8 -8 -8 -8 -8 -8 -8 -7 -8 -8 -8 -8
-4 -4 -4 -5 -5 -5 -5 -5 -6 -7 -6 -7 -7 -8 -8 -8 -8 -7 -8 -7 -8 -7 -7 -7 -7 -7 -7 -6 -7 -7 -8 -8 -8 -8 -8 -8 -8 -8 -8 -8 -8 -8 -9
-4 -4 -4 -4 -5 -4 -5 -5 -6 -6 -7 -7 -7 -8 -8 -8 -8 -8 -7 -8 -7 -7 -7 -7 -7 -6 -6 -6 -6 -7 -7 -7 -8 -8 -9 -9 -8 -8 -9 -8 -9 -9 -9
-4 -4 -4 -4 -5 -5 -5 -5 -5 -6 -6 -7 -7 -8 -8 -8 -7 -7 -8 -8 -7 -7 -7 -7 -6 -6 -6 -7 -6 -6 -7 -8 -8 -8 -8 -8 -7 -9 -9 -9 -9 -9 -10
-3 -4 -5 -4 -5 -5 -5 -5 -5 -6 -6 -6 -7 -8 -8 -8 -8 -8 -7 -8 -7 -7 -7 -6 -7 -7 -7 -7 -7 -7 -8 -8 -8 -7 -7 -7 -7 -7 -8 -9 -9 -9 -10
-3 -3 -4 -4 -5 -5 -4 -5 -5 -6 -6 -6 -7 -7 -8 -8 -8 -8 -8 -8 -8 -7 -7 -7 -7 -7 -6 -6 -7 -7 -7 -7 -7 -7 -7 -7 -7 -7 -8 -8 -8 -8 -8
-4 -4 -4 -4 -4 -4 -4 -4 -5 -5 -6 -6 -6 -7 -7 -7 -7 -8 -7 -8 -8 -7 -7 -7 -6 -7 -6 -6 -6 -7 -7 -7 -7 -7 -7 -7 -7 -7 -7 -8 -8 -9 -9
-4 -4 -4 -4 -4 -4 -4 -5 -5 -5 -6 -6 -6 -7 -7 -7 -8 -8 -8 -8 -8 -7 -7 -7 -7 -6 -6 -6 -6 -6 -6 -6 -6 -6 -7 -7 -6 -7 -7 -8 -10 -10 -10
-3 -4 -4 -4 -4 -4 -4 -4 -5 -5 -6 -6 -6 -7 -7 -7 -8 -7 -8 -8 -8 -7 -7 -7 -7 -6 -6 -6 -5 -5 -5 -6 -6 -7 -7 -7 -7 -8 -9 -11 -11 -11 -11
-3 -3 -4 -4 -4 -4 -4 -4 -4 -4 -5 -6 -6 -6 -7 -7 -7 -7 -7 -7 -7 -6 -6 -6 -6 -7 -7 -7 -7 -7 -6 -6 -6 -6 -6 -7 -7 -8 -11 -11 -12 -12 -12
-3 -3 -4 -4 -4 -4 -4 -4 -4 -4 -4 -5 -6 -6 -6 -6 -6 -6 -6 -6 -6 -6 -6 -6 -6 -6 -6 -7 -7 -6 -6 -6 -6 -6 -6 -6 -6 -8 -10 -11 -12 -13 -13
-3 -3 -3 -4 -4 -4 -4 -4 -4 -4 -4 -4 -5 -5 -6 -6 -6 -6 -6 -6 -6 -6 -6 -6 -6 -6 -6 -5 -5 -5 -6 -6 -6 -6 -6 -6 -6 -9 -11 -12 -12 -12 -12
-3 -3 -3 -3 -4 -4 -4 -4 -4 -4 -4 -4 -4 -5 -5 -5 -5 -5 -6 -6 -6 -6 -6 -6 -6 -6 -6 -6 -6 -6 -6 -6 -6 -6 -6 -6 -6 -9 -12 -13 -13 -13 -13
-4 -3 -3 -3 -4 -4 -5 -4 -4 -4 -4 -5 -4 -4 -4 -5 -6 -6 -6 -6 -6 -6 -6 -6 -6 -6 -6 -6 -6 -6 -6 -6 -6 -6 -6 -6 -7 -9 -11 -12 -12 -12 -13
-4 -4 -4 -4 -4 -4 -5 -5 -4 -4 -4 -4 -5 -5 -5 -5 -6 -6 -7 -6 -6 -6 -6 -6 -6 -6 -5 -6 -6 -6 -6 -7 -7 -6 -6 -6 -7 -9 -11 -12 -12 -12 -12
Height
5893 5892 5892 5892 5893 5893 5894 5894 5893 5892 5891 5891 5891 5892 5892 5892 5893 5893 5892 5891 5891 5890 5889 5889 5888 5888 5885 5885 5887 5888 5888 5888 5886 5885 5886 5887 5888 5889 5889 5890 5889 5890 5889
5895 5895 5894 5894 5894 5895 5895 5894 5894 5894 5893 5894 5894 5893 5893 5893 5892 5893 5892 5892 5891 5890 5889 5888 5888 5888 5888 5889 5889 5889 5887 5887 5887 5885 5884 5886 5886 5888 5889 5888 5888 5889 5888
5897 5898 5897 5896 5896 5896 5897 5897 5896 5895 5896 5895 5894 5893 5892 5892 5893 5893 5892 5891 5891 5890 5890 5889 5888 5888 5889 5888 5887 5887 5888 5887 5885 5882 5883 5885 5885 5886 5887 5886 5886 5885 5885
5900 5901 5900 5898 5899 5899 5899 5899 5898 5898 5897 5895 5894 5895 5894 5894 5895 5894 5895 5894 5892 5891 5890 5890 5890 5889 5887 5886 5886 5886 5885 5886 5885 5883 5882 5883 5885 5886 5886 5886 5885 5884 5882
5904 5904 5902 5902 5902 5902 5902 5901 5901 5899 5898 5897 5898 5898 5896 5897 5896 5895 5895 5894 5892 5891 5889 5889 5889 5889 5888 5890 5889 5888 5887 5885 5884 5884 5883 5884 5885 5885 5886 5885 5883 5884 5881
5907 5906 5906 5905 5905 5906 5905 5904 5904 5902 5901 5901 5901 5900 5898 5898 5897 5895 5893 5892 5890 5889 5890 5892 5893 5891 5890 5890 5890 5889 5888 5886 5884 5883 5883 5883 5883 5883 5884 5883 5884 5884 5883
5909 5909 5908 5908 5908 5908 5907 5906 5906 5904 5903 5904 5903 5902 5899 5897 5895 5893 5893 5893 5892 5893 5891 5891 5891 5889 5890 5890 5891 5891 5891 5890 5887 5882 5881 5883 5882 5882 5883 5883 5881 5880 5880
5912 5913 5911 5911 5911 5911 5908 5908 5907 5906 5905 5903 5901 5901 5900 5898 5899 5901 5899 5895 5895 5895 5894 5892 5888 5888 5887 5888 5889 5890 5890 5888 5886 5883 5880 5880 5881 5883 5883 5882 5880 5878 5879
5915 5914 5914 5913 5913 5912 5910 5909 5908 5909 5906 5904 5903 5901 5901 5903 5902 5899 5897 5896 5898 5896 5889 5889 5889 5888 5887 5886 5887 5886 5886 5886 5886 5884 5881 5881 5881 5881 5880 5880 5878 5877 5877
5917 5916 5916 5915 5915 5914 5912 5910 5910 5909 5908 5907 5905 5904 5906 5903 5900 5896 5897 5902 5892 5894 5897 5892 5893 5892 5892 5890 5891 5889 5890 5885 5885 5884 5882 5879 5878 5877 5876 5875 5874 5873 5873
5920 5919 5919 5918 5917 5916 5915 5913 5912 5911 5911 5909 5906 5908 5906 5905 5905 5900 5893 5898 5890 5895 5901 5897 5893 5892 5896 5897 5895 5892 5888 5886 5887 5885 5882 5881 5880 5879 5878 5875 5873 5870 5869
5924 5922 5921 5920 5920 5919 5917 5916 5915 5913 5912 5911 5909 5912 5911 5905 5906 5901 5899 5900 5892 5895 5896 5896 5895 5893 5896 5900 5896 5892 5889 5891 5886 5887 5885 5884 5885 5881 5877 5874 5872 5870 5867
5927 5925 5924 5924 5922 5921 5921 5919 5917 5914 5914 5914 5912 5914 5912 5909 5908 5903 5902 5900 5899 5898 5899 5898 5896 5897 5900 5899 5897 5894 5893 5891 5889 5886 5885 5884 5882 5879 5875 5874 5868 5864 5860
5929 5928 5925 5927 5925 5925 5923 5922 5919 5917 5917 5918 5915 5914 5910 5906 5907 5906 5903 5904 5901 5900 5901 5902 5901 5903 5904 5904 5901 5896 5894 5894 5889 5885 5883 5880 5877 5872 5867 5864 5861 5860 5854
5931 5929 5928 5928 5929 5928 5927 5926 5922 5919 5921 5921 5920 5918 5914 5912 5909 5909 5909 5905 5903 5901 5902 5903 5905 5905 5904 5904 5899 5896 5893 5891 5886 5881 5878 5875 5869 5862 5854 5859 5856 5853 5850
5933 5931 5931 5931 5930 5930 5931 5929 5926 5922 5925 5925 5924 5922 5920 5919 5916 5913 5913 5910 5909 5906 5906 5906 5907 5905 5901 5898 5895 5893 5890 5886 5882 5879 5876 5874 5871 5855 5856 5856 5849 5844 5835
5933 5933 5932 5932 5933 5933 5933 5931 5929 5928 5929 5929 5926 5924 5923 5922 5919 5916 5913 5910 5909 5909 5908 5906 5904 5897 5899 5897 5895 5893 5889 5886 5882 5877 5873 5871 5869 5864 5859 5854 5846 5841 5832
5934 5936 5935 5933 5935 5935 5934 5935 5934 5933 5930 5930 5931 5929 5927 5924 5918 5917 5916 5915 5910 5910 5906 5904 5899 5900 5900 5899 5897 5895 5892 5887 5881 5876 5871 5868 5863 5860 5855 5846 5836 5832 5829
5935 5937 5937 5936 5936 5936 5937 5937 5935 5934 5931 5933 5933 5933 5930 5926 5923 5919 5914 5913 5911 5910 5908 5907 5905 5903 5902 5901 5900 5899 5894 5890 5884 5878 5870 5867 5863 5856 5845 5835 5828 5825 5822
5936 5938 5938 5938 5937 5937 5938 5938 5937 5937 5934 5934 5935 5933 5931 5927 5926 5924 5922 5921 5918 5916 5915 5913 5910 5908 5906 5904 5901 5898 5895 5890 5886 5878 5873 5868 5859 5848 5838 5832 5825 5817 5809
5936 5938 5939 5939 5939 5938 5939 5939 5939 5938 5938 5938 5938 5936 5933 5932 5931 5929 5929 5926 5924 5922 5919 5917 5915 5914 5910 5907 5904 5900 5895 5890 5885 5881 5873 5863 5853 5840 5830 5823 5816 5807 5801
5937 5937 5938 5939 5940 5940 5940 5941 5940 5939 5938 5939 5939 5938 5936 5935 5935 5934 5932 5930 5928 5926 5924 5922 5920 5918 5916 5913 5909 5904 5898 5891 5886 5879 5872 5862 5851 5835 5822 5813 5806 5799 5794
5938 5937 5939 5939 5939 5941 5942 5942 5942 5942 5941 5941 5940 5939 5940 5938 5937 5937 5936 5934 5932 5930 5928 5926 5923 5920 5917 5914 5909 5905 5898 5890 5883 5876 5869 5859 5845 5828 5818 5807 5800 5794 5791
5937 5938 5939 5940 5940 5940 5942 5943 5944 5944 5943 5944 5944 5943 5941 5940 5940 5939 5938 5936 5935 5932 5931 5928 5926 5922 5919 5913 5907 5901 5894 5887 5881 5874 5865 5855 5841 5825 5815 5805 5797 5790 5785
5935 5937 5937 5940 5941 5940 5941 5943 5943 5944 5944 5945 5944 5943 5942 5940 5940 5939 5939 5938 5936 5935 5933 5930 5927 5923 5919 5913 5906 5898 5891 5886 5879 5871 5863 5852 5838 5822 5811 5802 5796 5790 5785
5932 5936 5937 5938 5940 5941 5941 5942 5944 5944 5945 5945 5945 5944 5943 5941 5941 5940 5939 5939 5938 5936 5933 5931 5927 5922 5916 5911 5905 5899 5892 5887 5879 5871 5862 5849 5834 5820 5808 5801 5796 5790 5783
Wind_Speed
21 20 18 18 16 14 13 13 12 10 9 7 8 10 12 12 12 13 14 15 15 14 14 14 12 10 9 8 6 6 7 6 7 6 2 2 3 3 5 6 6 7 7
21 20 19 18 17 16 14 13 11 9 9 9 9 9 9 10 10 11 12 11 12 12 12 12 10 9 8 6 5 6 5 5 5 5 5 5 4 7 7 7 7 7 5
22 21 21 20 18 17 16 14 12 12 11 9 8 8 8 7 7 8 10 10 9 9 9 8 7 6 5 3 3 5 5 5 6 5 6 9 7 7 6 6 7 7 7
22 22 22 21 21 21 20 18 18 18 14 12 10 10 8 8 8 6 6 6 6 5 5 4 4 4 3 3 1 3 4 4 6 8 5 6 4 4 4 5 5 6 5
21 22 23 23 22 22 22 19 20 18 15 13 12 12 10 9 9 7 7 4 4 4 3 3 3 3 2 3 2 1 2 2 4 7 6 6 4 3 6 6 6 8 5
22 22 23 23 22 23 21 19 17 16 14 14 14 14 12 11 11 9 8 7 6 5 4 2 1 2 1 2 3 3 2 0 3 1 4 4 5 2 6 6 7 10 9
22 21 22 22 21 21 19 18 15 13 13 15 15 14 11 10 9 7 8 8 5 4 3 1 1 1 0 1 1 2 1 3 4 9 8 5 2 3 8 9 6 6 10
20 20 19 19 20 19 16 15 13 11 13 14 13 12 12 9 10 14 12 6 5 3 3 2 2 3 2 0 1 1 3 8 3 1 5 10 2 6 8 11 9 6 8
18 18 17 17 18 17 15 13 12 13 12 11 12 11 10 17 18 11 4 7 9 9 14 9 2 8 5 5 3 3 6 6 4 8 6 3 2 5 8 10 9 8 9
16 17 17 16 17 16 15 13 14 14 12 14 12 11 18 11 13 10 13 12 7 9 16 6 10 13 13 11 14 15 8 8 12 10 11 6 4 5 8 10 10 10 11
15 16 16 17 17 16 16 15 15 15 15 14 13 16 13 11 13 15 9 15 20 13 11 14 16 12 17 15 17 12 14 12 11 11 10 8 9 8 8 9 10 10 11
12 15 16 17 17 17 17 17 17 15 11 12 14 20 17 17 14 23 18 23 20 13 11 13 13 16 11 17 10 11 10 12 18 14 13 14 15 17 17 13 13 14 13
10 14 15 15 18 18 18 18 17 13 13 14 14 22 15 17 19 25 23 20 17 10 6 8 12 12 14 16 13 13 15 18 19 18 16 16 15 18 26 17 23 18 17
8 12 15 16 18 18 20 19 17 14 13 16 12 18 17 24 28 19 26 22 15 9 3 9 9 13 13 10 14 16 19 17 13 16 18 16 14 17 18 16 15 21 21
7 12 14 16 16 18 19 19 18 18 15 18 19 17 17 24 25 27 28 32 23 13 9 9 9 9 12 16 18 23 23 20 18 20 15 25 24 22 25 28 17 29 28
7 11 12 15 16 16 18 21 20 19 18 18 20 21 20 20 20 20 27 32 31 25 21 18 12 17 20 25 29 29 27 28 28 30 28 28 25 19 30 25 27 31 33
8 9 12 15 15 16 18 20 20 18 18 19 20 17 20 23 22 23 24 29 30 29 27 26 25 27 25 28 29 30 30 29 31 33 32 30 28 28 27 24 25 31 30
6 7 11 14 13 15 16 18 18 16 18 18 21 19 19 23 28 28 25 23 27 26 30 29 31 28 27 27 27 26 27 30 33 34 34 32 30 30 30 30 30 32 33
6 6 8 13 13 13 15 16 18 17 18 16 17 17 22 22 22 26 23 28 29 28 27 27 28 28 26 26 25 24 27 31 31 30 29 31 33 34 37 37 32 32 38
8 6 7 9 11 12 13 15 16 17 18 14 14 16 20 22 22 26 25 22 23 23 23 22 22 23 23 24 25 27 29 31 31 27 28 32 36 38 39 35 33 36 32
10 8 8 8 9 11 10 13 15 16 18 13 12 14 16 18 19 20 20 21 20 19 20 20 20 19 19 23 24 28 30 31 25 25 31 36 42 44 43 41 32 31 32
11 11 10 9 8 9 9 10 13 13 15 15 9 12 12 12 15 17 18 17 17 17 18 19 18 17 15 15 16 22 26 26 24 28 33 39 42 46 46 34 28 25 20
12 12 11 11 10 8 9 9 11 12 12 13 12 9 10 10 11 13 13 13 14 15 16 16 17 18 19 16 16 21 21 21 25 31 37 41 44 47 38 31 28 25 22
13 11 12 10 11 10 9 8 8 10 11 10 11 9 5 9 10 11 12 12 11 13 15 15 16 15 17 20 25 28 27 24 28 36 41 46 47 47 34 31 29 26 24
12 14 14 11 11 10 9 8 8 6 9 7 8 10 8 7 8 11 11 12 12 13 13 15 17 17 19 23 27 31 30 27 30 37 43 48 48 46 39 34 24 19 17
11 13 15 14 12 13 10 9 7 7 5 7 5 8 9 6 7 8 10 11 12 12 13 13 16 20 23 26 29 31 30 28 30 37 43 49 49 45 39 29 30 25 22
Wind_Direction
86 91 95 92 94 98 96 94 93 92 93 100 92 84 82 83 84 78 84 85 86 88 86 84 89 88 87 83 73 53 39 24 16 346 341 200 202 209 194 186 175 183 177
84 87 87 88 89 92 94 99 101 103 93 74 68 73 77 78 81 84 92 95 98 97 96 95 97 97 92 80 69 57 44 46 9 311 265 258 211 211 209 205 203 206 202
86 85 85 85 85 85 83 83 86 81 80 86 91 93 93 100 107 112 118 111 105 105 105 106 111 109 111 116 48 31 44 51 16 352 226 213 221 213 211 209 222 212 205
88 89 86 85 84 83 82 82 81 75 80 91 101 107 116 118 116 122 103 91 106 111 111 121 127 151 177 171 83 53 72 63 44 66 136 186 217 266 269 267 257 253 217
91 88 86 83 82 81 81 81 78 75 73 82 84 83 87 93 100 102 101 109 116 115 154 184 199 227 288 346 354 8 72 150 73 73 120 150 193 259 265 267 267 265 240
88 85 83 82 85 81 77 77 75 68 67 68 75 74 74 79 86 92 100 108 112 121 116 98 62 47 59 19 349 338 323 300 43 112 150 183 185 180 292 295 280 259 257
83 79 78 79 83 81 75 72 71 64 56 60 58 66 78 87 97 105 101 92 89 76 69 79 278 223 185 139 132 274 350 14 345 302 224 205 47 329 294 289 282 267 251
80 79 78 78 78 79 74 69 63 51 53 59 71 75 82 83 62 44 46 59 56 25 11 354 224 126 165 181 49 126 101 65 38 254 175 216 223 277 278 282 278 254 252
77 78 79 78 76 72 68 61 54 50 54 59 73 76 68 59 64 70 80 73 38 345 333 318 129 99 95 75 48 98 124 347 57 31 69 156 285 290 280 275 271 261 256
72 70 73 71 72 67 59 53 50 51 48 45 59 72 60 78 83 72 51 48 81 344 358 347 92 89 72 74 60 45 69 43 46 49 32 32 310 274 274 280 280 275 269
69 69 68 63 65 66 61 50 44 44 52 56 50 52 42 28 58 28 39 76 78 42 43 42 79 81 71 59 47 43 27 23 38 44 11 339 322 313 311 313 296 280 274
60 63 62 65 65 62 56 55 49 43 52 57 47 51 41 37 57 61 79 74 67 49 13 34 19 81 83 74 63 39 21 4 29 20 356 341 333 325 320 309 303 292 283
56 60 62 65 65 62 60 57 57 45 45 46 60 59 29 53 64 64 51 36 45 10 74 17 58 80 53 38 40 50 35 26 19 14 357 350 329 324 315 321 302 285 277
56 59 60 69 68 63 56 54 63 54 46 53 60 41 32 39 48 55 57 46 39 40 109 97 53 57 59 41 45 43 39 31 24 1 346 343 345 326 301 302 298 288 279
79 70 60 68 69 63 65 59 56 54 57 60 70 70 62 53 49 61 57 50 47 72 97 133 73 34 36 50 38 32 31 21 3 359 358 347 348 315 327 343 314 294 279
97 80 75 74 71 62 60 59 55 54 66 74 78 82 70 65 54 63 65 64 61 72 88 100 92 54 41 27 20 18 15 10 5 355 355 354 339 327 335 322 318 317 280
102 84 90 82 77 70 63 59 58 62 71 78 80 73 75 66 66 74 64 61 58 58 61 62 51 37 26 23 18 11 7 4 359 353 351 349 343 336 333 327 312 309 308
111 91 102 94 85 76 68 63 63 66 75 81 87 81 76 67 70 62 62 60 58 46 43 40 37 28 21 22 19 8 3 358 357 351 350 345 340 335 325 313 306 303 305
137 120 109 104 92 86 80 68 63 58 71 85 91 86 80 71 60 49 58 50 47 42 39 33 29 22 15 14 8 3 357 358 354 351 345 348 339 329 314 306 306 299 296
162 146 123 114 101 94 88 79 71 65 74 73 79 78 70 68 58 53 66 47 42 39 36 33 28 21 13 8 7 3 354 351 355 351 350 346 336 327 315 314 308 304 291
177 162 146 135 114 106 98 87 77 65 71 91 79 81 72 71 68 65 57 53 48 38 31 27 23 23 13 4 358 351 346 348 356 359 354 349 340 326 323 329 321 304 296
191 175 166 161 135 118 116 98 85 73 63 67 90 89 82 73 75 71 60 50 47 44 36 29 22 24 18 10 354 350 348 347 359 5 358 355 344 325 332 336 336 336 321
202 190 185 174 160 135 131 114 99 89 76 65 62 85 107 99 81 75 72 57 46 41 35 31 26 16 8 2 1 357 354 358 6 5 3 357 349 332 344 344 338 333 325
210 204 201 194 179 157 141 130 108 95 82 67 62 67 95 96 94 82 66 55 46 43 35 33 29 21 13 3 2 2 6 7 9 10 9 3 359 342 352 350 346 336 327
208 213 208 202 194 177 155 147 126 95 92 75 54 49 50 66 64 68 66 59 46 40 36 29 25 20 13 12 7 6 7 8 13 14 12 8 4 350 359 1 2 350 339
193 212 210 208 201 193 178 161 154 131 98 91 57 50 41 44 51 61 57 54 49 40 34 26 21 20 15 14 9 7 7 11 14 16 16 12 7 4 9 9 3 354 339